TimeEST,TemperatureF,Dew PointF,Humidity,Sea Level PressureIn,VisibilityMPH,Wind Direction,Wind SpeedMPH,Gust SpeedMPH,PrecipitationIn,Events,Conditions,WindDirDegrees,DateUTC
12:53 AM,41.0,28.9,62,30.42,10.0,SSE,9.2,-,N/A,,Mostly Cloudy,160,2013-12-01 05:53:00
1:53 AM,42.1,30.0,62,30.40,10.0,South,10.4,-,N/A,,Mostly Cloudy,170,2013-12-01 06:53:00
2:53 AM,42.1,30.9,65,30.37,10.0,SSE,9.2,-,N/A,,Clear,160,2013-12-01 07:53:00
3:53 AM,43.0,32.0,65,30.34,10.0,SSE,9.2,-,N/A,,Overcast,160,2013-12-01 08:53:00
4:53 AM,44.1,33.1,65,30.33,10.0,South,8.1,-,N/A,,Overcast,170,2013-12-01 09:53:00
5:53 AM,44.1,33.1,65,30.30,10.0,SE,9.2,-,N/A,,Mostly Cloudy,140,2013-12-01 10:53:00
6:53 AM,44.1,36.0,73,30.29,10.0,SE,11.5,-,N/A,,Scattered Clouds,140,2013-12-01 11:53:00
7:37 AM,44.6,35.6,71,30.27,10.0,SSE,16.1,23.0,N/A,,Mostly Cloudy,150,2013-12-01 12:37:00
7:53 AM,46.0,36.0,68,30.28,10.0,SE,11.5,20.7,N/A,,Mostly Cloudy,140,2013-12-01 12:53:00
8:04 AM,46.4,35.6,66,30.27,10.0,SE,16.1,24.2,N/A,,Scattered Clouds,140,2013-12-01 13:04:00
8:53 AM,46.9,37.0,68,30.27,10.0,SSE,12.7,-,N/A,,Mostly Cloudy,150,2013-12-01 13:53:00
9:53 AM,48.0,39.0,71,30.25,10.0,SSE,15.0,-,N/A,,Partly Cloudy,150,2013-12-01 14:53:00
10:53 AM,50.0,39.9,68,30.22,10.0,SE,10.4,19.6,N/A,,Overcast,130,2013-12-01 15:53:00
11:53 AM,48.0,43.0,83,30.19,10.0,SE,6.9,-,0.00,,Overcast,130,2013-12-01 16:53:00
12:21 PM,48.2,42.8,82,30.17,10.0,ESE,10.4,-,N/A,,Overcast,120,2013-12-01 17:21:00
12:53 PM,48.9,43.0,80,30.14,10.0,SE,8.1,-,N/A,,Overcast,130,2013-12-01 17:53:00
1:53 PM,50.0,44.1,80,30.12,10.0,SSE,13.8,-,N/A,,Overcast,150,2013-12-01 18:53:00
2:53 PM,48.9,46.0,90,30.09,10.0,SE,11.5,-,N/A,,Overcast,140,2013-12-01 19:53:00
3:21 PM,48.2,46.4,93,30.09,8.0,SE,11.5,-,0.01,,Overcast,140,2013-12-01 20:21:00
3:53 PM,48.9,46.0,90,30.08,10.0,SE,10.4,-,0.01,,Overcast,130,2013-12-01 20:53:00
3:58 PM,48.2,46.4,93,30.08,10.0,SE,10.4,-,N/A,,Overcast,140,2013-12-01 20:58:00
4:16 PM,48.2,46.4,93,30.07,10.0,SE,12.7,-,N/A,,Overcast,140,2013-12-01 21:16:00
4:53 PM,48.9,46.0,90,30.06,10.0,SE,10.4,-,N/A,,Overcast,130,2013-12-01 21:53:00
5:07 PM,48.2,46.4,93,30.06,9.0,SE,12.7,-,0.01,,Overcast,130,2013-12-01 22:07:00
5:53 PM,48.9,46.0,90,30.04,10.0,SE,11.5,-,0.01,,Mostly Cloudy,140,2013-12-01 22:53:00
6:01 PM,48.2,46.4,93,30.04,10.0,SE,10.4,-,N/A,,Overcast,140,2013-12-01 23:01:00
6:53 PM,48.9,46.9,93,30.03,10.0,SE,13.8,19.6,N/A,,Overcast,130,2013-12-01 23:53:00
7:25 PM,48.2,46.4,93,30.02,10.0,SE,8.1,-,N/A,,Overcast,140,2013-12-02 00:25:00
7:53 PM,50.0,48.0,93,30.02,10.0,SE,8.1,-,N/A,,Overcast,140,2013-12-02 00:53:00
8:01 PM,50.0,48.2,94,30.02,10.0,SE,5.8,-,N/A,,Overcast,140,2013-12-02 01:01:00
8:14 PM,50.0,48.2,94,30.01,10.0,SE,4.6,-,N/A,,Overcast,130,2013-12-02 01:14:00
8:22 PM,50.0,48.2,94,30.01,10.0,SE,5.8,-,N/A,,Overcast,140,2013-12-02 01:22:00
8:42 PM,50.0,46.4,87,30.00,10.0,Calm,Calm,-,N/A,,Overcast,0,2013-12-02 01:42:00
8:53 PM,48.9,46.9,93,30.00,9.0,ESE,3.5,-,N/A,,Overcast,110,2013-12-02 01:53:00
9:00 PM,48.2,46.4,93,30.00,8.0,Calm,Calm,-,N/A,,Overcast,0,2013-12-02 02:00:00
9:11 PM,46.4,46.4,100,30.00,1.8,Calm,Calm,-,N/A,,Overcast,0,2013-12-02 02:11:00
9:20 PM,48.2,46.4,93,30.00,1.5,Calm,Calm,-,N/A,,Overcast,0,2013-12-02 02:20:00
9:34 PM,46.4,44.6,93,30.00,0.5,Calm,Calm,-,N/A,Fog,Fog,0,2013-12-02 02:34:00
9:53 PM,46.0,44.1,93,30.00,0.2,Calm,Calm,-,N/A,Fog,Fog,0,2013-12-02 02:53:00
10:22 PM,44.6,42.8,93,29.99,0.2,WNW,4.6,-,N/A,Fog,Fog,290,2013-12-02 03:22:00
10:31 PM,46.4,44.6,93,29.99,1.0,West,5.8,-,N/A,,Overcast,270,2013-12-02 03:31:00
10:44 PM,46.4,46.4,100,29.99,0.5,West,4.6,-,N/A,Fog,Fog,260,2013-12-02 03:44:00
10:53 PM,46.9,45.0,93,29.99,0.2,WSW,5.8,-,N/A,Fog,Fog,250,2013-12-02 03:53:00
10:59 PM,46.4,44.6,93,29.99,0.2,West,4.6,-,N/A,Fog,Fog,260,2013-12-02 03:59:00
11:18 PM,46.4,46.4,100,29.98,0.2,West,3.5,-,N/A,Fog,Fog,280,2013-12-02 04:18:00
11:38 PM,46.4,46.4,100,29.97,0.5,Calm,Calm,-,N/A,Fog,Fog,0,2013-12-02 04:38:00
11:53 PM,46.9,46.0,97,29.97,1.2,West,3.5,-,N/A,,Overcast,270,2013-12-02 04:53:00